SIA126 UTAV-WSSS

Flight info

Callsign SIA126
Flight time N/A
Altitude 39000
Route GOD31D NURSA A845 DAVET P173 TAPIS M875 SITAX A466 JHANG M875 LAPAN/N0484F410 M875 KAKID M770 OBMOG L515 PUT B579 VPL W531 VIH A464 VKL Y507 MAKNA Y511 TOPOR A464 ARAMA ARAMA1B
Aircraft A359/H-SDE2E3GHIJ3J4J5LM1ORWXY/LB1D1

Departure

Time 2026-04-18 16:26
Airport Türkmenabat International Airport (UTAV)

Arrival

Time N/A
Airport Singapore Changi Airport (WSSS)
Time Latitude Longitude Altitude Speed Heading
2026-04-18 16:07 39.09520 63.60253 645 ft 0 kts 33°
2026-04-18 16:20 39.09516 63.60250 639 ft 4 kts 33°
2026-04-18 16:20 39.09493 63.60231 641 ft 4 kts 32°
2026-04-18 16:20 39.09470 63.60213 642 ft 4 kts 31°
2026-04-18 16:20 39.09447 63.60196 642 ft 4 kts 31°
2026-04-18 16:21 39.09424 63.60177 641 ft 4 kts 35°
2026-04-18 16:21 39.09422 63.60176 641 ft 4 kts 38°
2026-04-18 16:21 39.09444 63.60197 641 ft 4 kts 38°
2026-04-18 16:21 39.09466 63.60218 641 ft 4 kts 38°
2026-04-18 16:22 39.09471 63.60224 641 ft 0 kts 38°
2026-04-18 16:24 39.09472 63.60225 639 ft 1 kts 39°
2026-04-18 16:24 39.09476 63.60239 644 ft 4 kts 71°
2026-04-18 16:24 39.09473 63.60252 641 ft 1 kts 108°
2026-04-18 16:25 39.09455 63.60291 646 ft 9 kts 126°
2026-04-18 16:25 39.09413 63.60394 644 ft 17 kts 109°
2026-04-18 16:25 39.09344 63.60540 649 ft 22 kts 153°
2026-04-18 16:25 39.09014 63.60754 641 ft 95 kts 154°
2026-04-18 16:26 39.08179 63.61274 650 ft 169 kts 154°
2026-04-18 16:26 39.06980 63.61970 902 ft 213 kts 161°
2026-04-18 16:26 39.05352 63.62248 1316 ft 251 kts 184°
2026-04-18 16:26 39.03609 63.61932 2293 ft 257 kts 197°
2026-04-18 16:27 39.02090 63.60709 3017 ft 262 kts 224°
2026-04-18 16:27 39.00564 63.59441 3846 ft 266 kts 198°
2026-04-18 16:27 38.99346 63.59264 4380 ft 269 kts 175°
2026-04-18 16:27 38.97075 63.60469 5531 ft 270 kts 147°
2026-04-18 16:28 38.95552 63.61902 6380 ft 272 kts 141°
2026-04-18 16:28 38.94090 63.63469 7187 ft 274 kts 139°
2026-04-18 16:28 38.93130 63.64531 7711 ft 277 kts 139°
2026-04-18 16:28 38.91647 63.66151 8481 ft 282 kts 140°
2026-04-18 16:29 38.90120 63.67762 9304 ft 285 kts 142°
2026-04-18 16:29 38.88557 63.69354 10092 ft 290 kts 143°
2026-04-18 16:29 38.82253 63.75483 11272 ft 350 kts 151°
2026-04-18 16:29 38.74238 63.83196 13618 ft 370 kts 145°
2026-04-18 16:30 38.65844 63.91318 15822 ft 384 kts 146°
2026-04-18 16:30 38.57163 63.99664 18092 ft 397 kts 146°
2026-04-18 16:30 38.48202 64.08256 20132 ft 407 kts 146°
2026-04-18 16:30 38.39002 64.17048 22084 ft 418 kts 147°
2026-04-18 16:31 38.29653 64.25951 23856 ft 430 kts 147°
2026-04-18 16:31 38.19865 64.35237 24603 ft 452 kts 147°
2026-04-18 16:31 38.09619 64.44934 25516 ft 463 kts 148°
2026-04-18 16:31 37.99228 64.54730 26459 ft 471 kts 148°
2026-04-18 16:32 37.88583 64.64726 27513 ft 479 kts 149°
2026-04-18 16:32 37.77785 64.74829 28527 ft 487 kts 149°
2026-04-18 16:32 37.66796 64.85073 29499 ft 494 kts 150°
2026-04-18 16:32 37.55663 64.95411 30443 ft 501 kts 150°
2026-04-18 16:33 37.44459 65.05785 31564 ft 498 kts 151°
2026-04-18 16:33 37.33284 65.16082 32650 ft 497 kts 151°
2026-04-18 16:33 37.22114 65.26337 33648 ft 497 kts 151°
2026-04-18 16:33 37.11041 65.36473 34851 ft 488 kts 151°
2026-04-18 16:34 37.00025 65.46503 35606 ft 491 kts 150°
2026-04-18 16:34 36.88969 65.56543 36441 ft 490 kts 150°
2026-04-18 16:34 36.77909 65.66552 37292 ft 488 kts 150°
2026-04-18 16:34 36.66889 65.76482 37930 ft 489 kts 150°
2026-04-18 16:35 36.55855 65.86392 38533 ft 489 kts 150°
2026-04-18 16:35 36.44839 65.96252 39077 ft 487 kts 150°
2026-04-18 16:35 36.22916 66.16172 39109 ft 495 kts 142°
2026-04-18 16:36 36.14464 66.30019 39111 ft 510 kts 129°
2026-04-18 16:36 36.06593 66.44521 39124 ft 507 kts 130°
2026-04-18 16:36 35.90676 66.73172 39142 ft 504 kts 131°
2026-04-18 16:37 35.74874 67.01437 39137 ft 502 kts 131°
2026-04-18 16:37 35.59025 67.29696 39121 ft 500 kts 132°
2026-04-18 16:38 35.43160 67.57745 39100 ft 498 kts 133°
2026-04-18 16:38 35.27293 67.85589 39092 ft 499 kts 132°
2026-04-18 16:39 35.11575 68.13548 39109 ft 501 kts 132°
2026-04-18 16:39 34.95515 68.41330 39119 ft 500 kts 134°
2026-04-18 16:40 34.79235 68.68825 39091 ft 500 kts 133°
2026-04-18 16:40 34.62923 68.96220 39077 ft 500 kts 133°
2026-04-18 16:41 34.51604 69.14794 39065 ft 488 kts 144°
2026-04-18 16:41 34.48986 69.17296 39081 ft 473 kts 155°
2026-04-18 16:42 34.46145 69.19257 39065 ft 466 kts 161°
2026-04-18 16:42 34.40300 69.22583 39064 ft 463 kts 163°
2026-04-18 16:43 34.34454 69.25932 39060 ft 465 kts 161°
2026-04-18 16:43 34.28663 69.29466 39072 ft 466 kts 160°
2026-04-18 16:44 34.22937 69.33059 39067 ft 467 kts 160°
2026-04-18 16:44 34.17174 69.36688 39064 ft 467 kts 160°
2026-04-18 16:45 34.11404 69.40309 39060 ft 467 kts 160°
2026-04-18 16:45 34.05643 69.43925 39083 ft 466 kts 160°
2026-04-18 16:46 33.99897 69.47528 39087 ft 465 kts 160°
2026-04-18 16:46 33.94167 69.51116 39084 ft 464 kts 160°
2026-04-18 16:47 33.88426 69.54700 39087 ft 465 kts 160°
2026-04-18 16:47 33.82679 69.58285 39098 ft 464 kts 160°
2026-04-18 16:48 33.76988 69.61831 39099 ft 463 kts 160°
2026-04-18 16:48 33.71239 69.65406 39084 ft 462 kts 160°
2026-04-18 16:49 33.65569 69.68924 39087 ft 461 kts 160°
2026-04-18 16:49 33.59876 69.72465 39078 ft 460 kts 160°
2026-04-18 16:50 33.54188 69.75989 39053 ft 461 kts 160°
2026-04-18 16:50 33.48500 69.79537 39066 ft 461 kts 160°
2026-04-18 16:51 33.42845 69.83140 39049 ft 460 kts 160°
2026-04-18 16:51 33.37191 69.86745 39038 ft 460 kts 160°
2026-04-18 16:52 33.31551 69.90325 39021 ft 459 kts 160°
2026-04-18 16:52 33.25913 69.93890 39021 ft 458 kts 160°
2026-04-18 16:53 33.20276 69.97448 39021 ft 457 kts 160°
2026-04-18 16:53 33.14690 70.00968 39017 ft 457 kts 160°
2026-04-18 16:54 33.09060 70.04512 39002 ft 457 kts 160°
2026-04-18 16:54 33.03502 70.08233 39002 ft 460 kts 156°
2026-04-18 16:55 32.98061 70.12260 39000 ft 460 kts 155°
2026-04-18 16:55 32.92631 70.16277 39002 ft 458 kts 156°
2026-04-18 16:56 32.87189 70.20228 38976 ft 457 kts 156°
2026-04-18 16:56 32.81759 70.24132 39033 ft 455 kts 156°
2026-04-18 16:57 32.76324 70.28027 38985 ft 455 kts 156°
2026-04-18 16:57 32.70899 70.31912 38979 ft 455 kts 156°
2026-04-18 16:58 32.65477 70.35795 38962 ft 455 kts 156°
2026-04-18 16:58 32.60102 70.39648 38959 ft 453 kts 155°
2026-04-18 16:59 32.54706 70.43512 38955 ft 452 kts 155°
2026-04-18 16:59 32.49320 70.47363 38950 ft 451 kts 156°
2026-04-18 17:00 32.43947 70.51199 38946 ft 450 kts 156°
2026-04-18 17:00 32.38588 70.55021 38953 ft 449 kts 155°
2026-04-18 17:01 32.33241 70.58829 38943 ft 448 kts 155°
2026-04-18 17:01 32.27895 70.62631 38941 ft 448 kts 155°
2026-04-18 17:02 32.22559 70.66421 38943 ft 447 kts 155°
2026-04-18 17:02 32.17263 70.70176 38931 ft 446 kts 155°
2026-04-18 17:03 32.11945 70.73942 38943 ft 445 kts 155°
2026-04-18 17:03 32.06642 70.77694 38928 ft 444 kts 155°
2026-04-18 17:04 32.01354 70.81430 38930 ft 442 kts 155°
2026-04-18 17:04 31.96083 70.85162 38915 ft 442 kts 153°
2026-04-18 17:05 31.91324 70.89825 38927 ft 451 kts 136°
2026-04-18 17:05 31.87802 70.96015 38918 ft 458 kts 124°
2026-04-18 17:06 31.84808 71.02640 38915 ft 458 kts 122°
2026-04-18 17:06 31.81901 71.09275 38914 ft 455 kts 122°
2026-04-18 17:07 31.78976 71.15853 38914 ft 453 kts 123°
2026-04-18 17:07 31.76038 71.22378 38911 ft 450 kts 123°
2026-04-18 17:08 31.73127 71.28806 38902 ft 447 kts 123°
2026-04-18 17:08 31.70214 71.35228 38915 ft 443 kts 123°
2026-04-18 17:09 31.67324 71.41593 38914 ft 440 kts 123°